STARLINK-1100 (44943 NORAD) Tracking and Keplerian Element Data

This shows tracking and keplerian element data for the satellite.

Feedback or suggestion? Click here.




ElementValue
Catalog44943
NameSTARLINK-1100
Epoch Orbit176
Epoch Day189.91668981
Epoch Year2020
RAAN262.6882
Inclination52.9971
Eccentricity0.0001354
Argument of Perigee102.8527
Mean Anonmoly292.1199
Mean Motion15.05579142
Decay Rate-0.00025842
L11 44943U 20001AF 20189.91668981 -.00025842 00000-0 -17609-2 0 9993
L22 44943 52.9971 262.6882 0001354 102.8527 292.1199 15.05579142 1767

Live tracking and technical data element details for STARLINK-1100 (NORAD 44943). STARLINK-1100 can be tracked NOW for your location showing map with azimuth and elevation plus other details from your city location.

Track the satellite on the map from your city or location and see movement details for azimuth, elevation, latitude, longitude, range, height, and movement on the map or in text.







IsCatalogInMostPopularTable: catalog: 44943, numindb: 35
Update: records affected: 1



GetName: 44943 STARLINK-1100

Hit Count: updated at: Thu, 09 Jul 2020 01:04:02 GMT